Dewpoint
54 55 56 56 56 55 55 55 55 55 56 56 55 56 56 56 56 56 56 56 56 56 56 56 56 56 56 57 57 57 57 52 48 49 47 43 65 66 64 66 64 66 70 65 57 56 53 49 48 55 57 60 60 60 59 61 61 62 60 62 60 59 57 60 59 64 61 61 62 65 63 62 61 64 65 63 62 62 60 57 58 58 56 54 57 59 60 60
55 56 56 55 55 55 55 55 55 55 56 56 56 55 56 56 56 56 56 56 56 56 56 56 56 56 57 57 58 58 55 51 48 44 42 56 64 66 64 62 63 64 69 60 56 51 47 44 45 52 56 57 60 58 61 60 61 59 61 61 58 59 59 62 59 62 62 61 64 66 65 63 62 65 64 61 61 62 61 59 57 56 55 56 58 60 60 60
56 56 56 55 55 55 55 55 55 55 56 55 55 55 55 56 56 56 56 56 56 56 56 56 56 56 57 57 58 58 54 49 47 44 42 64 66 65 64 64 63 65 64 55 54 46 42 43 46 50 56 56 59 58 60 66 60 62 62 61 56 60 63 62 60 65 64 63 64 65 65 66 64 60 61 63 61 61 59 56 57 56 55 55 57 59 60 60
55 56 55 55 55 55 55 55 55 55 55 55 55 55 55 55 56 55 55 55 56 56 56 56 56 56 57 57 59 57 53 50 42 42 51 68 67 65 65 65 62 63 61 55 49 43 41 39 48 48 55 56 58 58 57 59 62 62 58 55 55 53 55 61 63 59 67 66 64 64 64 63 63 60 64 62 60 59 56 56 58 56 56 56 56 57 57 58
55 56 55 55 55 55 55 55 55 55 55 55 55 55 55 55 56 55 55 55 55 55 56 55 56 56 57 58 58 56 52 32 44 53 57 67 66 63 65 63 63 57 58 54 46 43 40 40 47 46 53 54 56 57 57 57 63 60 56 52 53 51 50 57 59 60 59 61 63 65 63 61 63 62 64 62 60 57 55 56 57 57 56 56 56 56 56 56
55 55 55 55 55 55 54 54 54 55 55 55 55 55 55 55 55 55 55 55 55 55 56 56 56 56 57 58 57 54 48 15 42 55 63 64 65 63 66 66 66 56 56 50 44 41 36 39 45 44 49 51 53 54 55 57 55 58 55 50 48 47 51 50 57 58 60 61 62 64 65 66 60 62 62 61 61 62 55 56 57 58 57 56 56 55 55 56
55 55 55 55 55 54 54 54 54 54 55 55 55 55 55 55 55 55 55 55 55 55 56 56 56 56 57 59 54 48 41 39 53 59 66 64 65 65 65 66 69 61 54 47 42 36 32 37 42 42 47 49 52 53 60 54 55 54 55 49 47 46 44 47 50 57 60 63 63 66 66 65 62 63 65 65 64 61 58 55 56 58 56 55 55 54 54 55
55 54 55 54 54 54 54 54 54 55 55 55 54 55 55 55 55 55 55 55 55 56 56 56 56 57 57 53 51 47 36 24 48 55 65 64 59 58 61 53 51 58 54 45 39 34 33 37 37 41 43 44 50 52 53 52 53 52 52 48 46 45 42 43 48 55 59 61 64 63 63 62 64 64 64 63 63 61 57 56 57 57 55 54 54 53 54 55
55 54 54 54 54 54 54 54 54 55 55 55 55 55 55 55 55 55 55 55 55 55 56 56 56 57 58 54 46 34 22 45 44 49 55 43 41 49 51 47 48 58 53 45 38 33 33 35 35 38 34 39 48 50 52 50 51 52 51 48 44 41 44 41 43 52 58 59 60 60 63 66 65 62 64 63 60 58 56 55 57 55 54 53 54 54 54 55
54 54 54 54 54 54 54 54 54 54 54 55 55 55 54 55 54 55 55 55 55 56 56 56 56 56 54 50 41 25 47 47 44 43 35 35 38 46 47 42 49 55 46 40 34 32 31 31 32 33 29 35 40 47 51 50 53 52 48 45 42 42 45 45 43 51 57 59 62 61 61 63 65 63 63 60 59 57 58 55 56 54 54 54 54 54 54 54
54 54 54 54 54 54 54 54 54 55 54 54 55 54 54 55 54 55 55 56 55 56 56 57 57 56 49 45 39 27 48 43 41 43 41 38 37 38 43 44 48 47 39 35 34 33 31 30 27 26 30 34 38 44 49 49 48 47 44 43 42 46 45 48 49 53 57 61 61 65 63 65 63 61 61 58 59 58 56 55 55 54 55 54 54 55 56 55
54 54 54 54 54 54 54 54 55 55 55 54 54 54 54 55 55 55 56 57 56 56 56 57 57 54 50 47 38 34 49 41 41 44 41 37 37 36 45 45 43 40 34 33 32 31 30 29 26 27 30 37 35 44 49 47 47 44 44 43 40 44 46 50 50 54 57 60 65 65 63 61 61 61 60 60 59 57 55 56 54 54 54 54 54 55 56 55
54 54 54 54 54 54 54 55 54 55 54 54 54 54 54 54 55 56 57 57 56 56 56 57 57 53 52 42 29 42 47 40 43 46 46 42 40 41 45 44 40 38 34 32 29 29 29 30 30 30 28 36 37 39 45 48 46 44 43 42 40 43 45 52 53 55 59 60 67 63 55 60 60 62 62 60 59 57 55 56 55 54 54 54 54 55 55 56
54 54 54 55 55 54 54 54 54 55 54 54 54 54 54 54 55 57 57 57 56 56 57 57 55 53 50 40 33 40 48 42 43 44 46 46 42 41 41 40 38 37 34 32 29 30 30 29 28 30 32 37 37 43 42 45 46 42 42 42 39 42 45 47 52 53 64 62 65 62 53 57 61 61 64 60 59 57 55 54 55 55 54 54 54 55 55 56
55 55 55 54 55 55 55 55 55 54 54 54 54 53 54 54 56 58 56 56 56 57 57 58 55 54 47 37 38 47 65 43 40 41 42 40 38 36 37 39 37 35 32 30 28 29 29 28 29 28 32 38 39 40 40 41 44 43 39 38 38 37 45 47 52 58 59 59 63 56 53 55 60 62 63 62 59 57 58 55 55 55 55 55 54 54 53 55
55 55 55 55 55 55 55 55 54 54 54 54 53 53 54 55 58 56 57 57 58 58 57 52 53 52 49 37 35 54 45 38 39 40 40 39 36 32 34 35 35 34 32 32 32 32 30 28 27 28 33 33 36 37 38 39 42 42 39 37 36 36 43 43 46 57 62 59 64 59 57 56 60 64 64 63 58 58 58 58 56 55 55 55 56 54 54 55
55 55 55 55 55 55 55 54 54 54 54 53 53 53 54 57 57 57 57 59 56 55 52 53 49 45 45 40 39 39 37 38 39 40 39 39 37 34 33 33 33 32 31 31 31 31 29 26 24 24 25 29 32 35 36 39 40 41 40 39 38 35 40 41 48 57 61 58 59 56 57 57 58 61 62 62 58 59 58 57 57 56 56 57 56 53 53 55
55 55 55 55 55 55 55 54 54 54 53 53 53 52 52 55 57 59 57 58 50 51 51 50 45 43 39 37 32 33 38 40 36 38 39 39 41 36 33 32 33 32 32 31 29 26 26 23 23 21 22 29 31 29 33 37 38 41 39 39 38 37 38 43 41 54 58 62 55 57 58 59 60 61 62 64 66 59 60 58 57 57 57 58 56 54 53 55
55 55 55 55 55 55 54 54 54 53 53 53 53 54 55 56 55 56 51 50 48 40 41 38 40 40 25 30 31 35 36 36 37 37 40 39 41 34 33 33 33 32 31 29 26 23 25 20 23 24 24 29 31 26 29 36 39 40 38 41 40 33 41 43 42 42 51 58 57 56 59 59 62 63 62 62 62 63 63 59 59 59 59 59 57 55 54 54
55 55 55 55 55 55 55 54 54 52 52 52 51 53 51 44 45 45 47 42 39 37 31 29 31 32 27 30 31 30 32 34 37 36 37 40 38 35 32 32 31 30 29 26 23 20 21 20 24 21 21 23 31 29 28 34 39 40 39 40 35 32 39 46 49 47 46 48 55 60 58 60 61 61 62 61 64 63 57 59 61 60 61 60 58 56 55 56
55 55 55 55 54 54 54 54 53 52 52 51 50 49 42 29 27 32 37 36 32 32 28 25 29 30 24 26 26 25 24 30 32 36 35 39 39 36 34 29 28 24 25 25 20 21 20 18 23 19 17 19 25 34 35 34 37 37 37 38 36 32 36 44 51 47 45 50 54 58 60 61 60 60 60 64 59 61 56 57 60 62 61 61 61 60 57 56
55 55 54 54 54 54 54 53 52 52 51 52 50 43 33 31 32 32 30 25 26 23 25 26 28 30 28 25 22 21 22 27 34 34 36 36 37 36 31 28 22 21 23 23 22 20 20 14 19 19 18 29 28 29 31 34 31 34 34 37 35 31 31 30 36 43 43 49 59 58 58 61 60 58 63 59 62 59 59 62 61 63 62 61 62 60 60 57
55 55 55 54 54 53 53 52 52 50 53 48 45 40 31 33 32 35 29 28 21 17 20 22 27 26 26 24 23 21 18 17 26 33 33 33 29 32 29 28 22 20 20 23 20 20 17 13 16 19 23 30 31 29 36 36 35 34 34 34 32 33 28 27 29 36 41 42 42 43 40 55 55 58 57 52 53 62 65 61 64 64 63 62 64 61 61 58
55 55 54 54 54 53 53 51 50 51 49 46 43 33 34 34 35 33 30 27 20 15 17 21 24 22 21 19 19 18 15 14 25 31 31 32 26 30 31 26 23 21 18 22 21 19 15 11 12 20 22 32 34 35 37 36 34 34 34 33 34 34 30 29 28 34 38 41 41 41 38 41 53 47 50 49 49 55 62 61 60 63 65 64 64 61 62 61
55 55 55 54 53 53 51 49 46 45 44 39 33 34 35 39 41 36 31 28 19 13 22 23 24 20 16 18 17 16 14 15 19 28 27 30 26 24 27 28 25 20 20 21 21 20 16 13 11 19 33 37 37 35 35 35 34 32 33 32 32 33 30 27 31 32 30 33 33 36 35 37 38 40 45 46 49 53 57 61 60 62 64 65 64 65 67 62
55 55 54 54 53 52 50 44 42 37 33 34 34 34 37 37 38 41 33 30 13 17 19 21 24 17 18 14 15 16 11 11 16 22 24 25 30 18 23 25 26 21 23 22 20 21 17 25 24 33 35 35 32 30 31 32 29 28 30 33 33 33 30 28 26 27 28 31 34 35 34 33 40 43 48 48 46 55 56 57 60 63 63 64 65 66 65 67
54 54 54 53 53 50 50 39 38 35 35 34 33 36 36 37 48 39 32 25 16 17 16 22 21 14 16 12 12 10 6 15 21 21 18 21 21 19 20 21 26 28 23 23 23 19 20 31 34 35 35 31 26 24 26 26 26 24 30 33 34 32 30 28 27 27 29 30 31 36 33 35 40 40 48 52 51 53 54 59 59 64 65 63 65 65 65 61
54 54 53 52 52 50 51 48 40 33 33 38 37 36 39 45 45 36 32 15 13 18 13 20 13 14 12 11 10 7 13 17 15 18 17 18 22 21 23 21 23 26 23 21 19 20 24 31 33 33 32 27 22 23 26 27 24 27 28 30 33 33 32 31 30 30 30 27 27 27 31 36 40 45 46 49 51 54 55 54 59 64 64 65 65 64 62 62
54 53 53 52 51 50 52 49 44 37 36 35 37 37 37 44 34 33 29 15 19 15 19 15 14 13 10 10 9 13 15 15 12 15 17 16 19 17 20 24 20 25 27 22 18 25 30 31 32 30 27 25 25 23 27 26 24 28 30 30 32 33 34 32 31 30 31 31 30 29 28 32 41 52 53 50 48 53 51 55 58 57 62 64 65 63 64 63
53 52 52 52 51 51 50 48 42 36 36 37 38 42 38 34 33 27 22 17 18 12 16 12 13 11 10 8 9 14 15 16 15 15 15 15 17 18 20 23 20 21 26 24 22 26 30 35 36 31 29 27 30 29 30 30 26 28 29 28 29 28 30 32 31 33 32 30 31 28 26 30 40 46 54 49 47 50 50 55 54 55 58 60 64 64 65 65
52 52 51 51 51 42 39 37 38 38 40 44 41 39 39 35 29 22 16 14 15 12 11 13 9 10 8 8 9 12 14 15 15 15 14 16 15 18 20 21 23 23 26 23 23 22 26 28 30 27 26 24 27 25 32 32 26 27 27 26 26 29 30 32 30 32 30 28 30 28 27 28 37 49 49 49 49 49 51 53 55 55 56 58 62 63 66 67
51 50 51 52 53 49 38 33 44 44 45 44 41 37 35 28 23 21 10 13 9 11 9 9 9 8 8 10 11 13 13 14 16 15 11 13 13 13 18 18 19 22 20 18 19 20 22 23 26 27 30 25 26 25 29 29 27 26 25 26 22 24 28 25 29 27 27 26 29 29 28 27 33 45 48 48 49 50 52 52 54 55 56 57 57 61 69 67
50 50 49 49 51 47 42 43 46 48 47 43 39 37 33 32 19 11 10 8 5 10 7 8 8 8 6 6 10 11 14 12 15 12 13 13 14 15 17 18 14 16 13 13 15 15 16 18 18 19 24 29 25 23 20 20 23 25 23 21 21 20 22 25 26 27 27 27 25 26 28 33 46 47 48 47 49 50 52 54 55 56 57 59 58 59 64 65
50 50 52 52 48 43 40 47 48 48 43 42 41 31 25 20 20 23 5 7 7 10 10 6 6 3 8 9 12 11 12 11 13 13 13 14 13 15 17 16 18 18 18 10 11 11 11 11 12 14 14 25 23 21 16 16 19 21 19 17 19 22 20 23 23 23 23 26 23 25 27 41 40 45 46 47 48 50 51 52 55 56 57 58 58 59 60 68
49 50 53 52 52 49 46 45 49 48 44 39 33 29 24 20 14 10 9 8 9 7 7 8 7 9 9 9 11 11 11 12 12 12 11 10 8 11 13 14 20 18 18 9 10 11 8 9 11 14 15 18 18 17 17 16 16 17 18 18 17 18 22 16 17 19 21 20 21 24 30 36 40 47 48 48 46 48 50 52 53 55 55 57 57 58 58 61
50 53 51 50 29 31 37 43 47 45 42 37 28 24 17 18 14 13 11 13 7 6 8 8 2 4 6 10 12 12 14 13 11 10 8 10 13 13 14 15 16 18 17 18 11 6 9 12 13 13 15 15 14 18 17 18 16 18 18 18 18 17 12 18 19 15 20 20 21 26 38 42 44 46 46 47 47 47 48 49 51 54 54 57 57 58 58 58
53 42 41 29 27 28 37 42 44 43 38 31 30 17 17 16 16 14 17 14 11 7 7 4 7 6 8 7 9 11 11 11 11 11 14 13 13 16 11 15 16 17 18 18 16 12 14 11 12 13 12 14 16 17 17 17 17 16 16 17 18 21 21 25 15 21 16 14 18 20 35 39 39 43 46 46 46 47 46 47 48 53 54 55 56 58 59 59
39 35 34 28 26 28 35 42 41 39 35 30 24 25 18 15 16 15 14 13 12 12 5 7 5 9 7 6 8 9 11 8 9 9 9 10 13 19 16 15 14 15 17 17 19 18 16 11 11 12 12 15 16 16 15 17 17 17 12 20 16 20 22 25 27 19 13 12 16 19 34 37 37 43 44 44 44 45 47 48 49 50 53 55 56 58 59 60
45 34 34 28 27 25 29 40 38 37 31 22 20 22 16 15 16 16 15 16 15 13 12 9 9 11 9 7 8 9 8 5 8 6 12 12 14 18 18 21 15 16 16 17 17 17 17 11 12 12 12 13 14 12 13 10 14 17 19 16 17 20 19 23 25 26 23 19 15 16 29 33 35 40 43 44 46 45 46 46 47 49 52 53 55 55 58 59
38 29 25 28 25 28 38 34 30 31 22 19 20 17 19 16 16 17 16 18 12 18 14 13 12 8 11 10 9 8 9 7 8 8 12 14 17 19 18 20 20 17 15 17 16 17 17 24 14 11 12 12 12 12 11 11 9 15 16 16 16 18 19 17 16 20 19 20 16 20 25 38 42 45 45 45 45 45 44 47 49 49 51 52 54 56 58 60
26 27 27 30 25 31 31 27 23 21 22 21 21 20 21 19 17 17 17 17 14 13 17 15 10 9 13 12 10 10 10 10 12 11 11 13 16 17 18 19 21 18 17 15 15 15 20 17 15 12 11 10 13 16 16 16 17 15 12 13 15 16 18 21 24 15 15 16 19 15 19 41 43 45 45 44 46 45 47 46 47 49 50 54 55 56 57 58
33 25 25 28 27 28 27 23 21 23 20 21 19 20 21 29 17 17 16 16 16 14 17 16 17 13 12 12 10 12 11 11 12 14 15 15 19 18 17 20 18 20 18 15 14 17 21 25 14 12 10 10 15 16 18 16 17 17 16 13 9 11 17 20 21 20 15 14 18 32 28 38 43 45 44 45 44 44 46 46 47 49 51 52 54 54 56 57
24 24 28 29 28 27 25 19 27 24 22 19 19 19 19 18 17 17 17 18 16 15 16 19 19 17 18 17 14 10 16 19 18 16 19 20 20 19 19 21 22 19 19 13 13 15 27 22 19 17 19 15 16 15 17 16 16 16 16 18 17 16 15 14 17 24 25 19 23 30 34 38 42 46 45 44 46 45 48 47 47 48 50 52 53 54 55 56
26 23 24 25 29 28 26 22 21 20 20 21 21 19 20 19 19 17 18 19 18 19 18 17 17 19 19 17 16 17 19 17 22 19 20 20 19 19 18 21 24 19 23 24 29 16 16 25 23 21 20 18 13 15 12 14 15 15 13 16 19 19 19 19 22 28 27 21 15 23 33 36 42 46 46 44 43 45 45 46 47 48 50 50 52 54 54 55
30 27 23 22 28 26 20 19 21 19 20 21 20 19 18 19 19 20 19 19 20 19 19 19 18 17 18 19 20 19 19 20 23 23 20 19 18 18 17 19 22 19 18 23 37 20 22 23 26 18 19 16 15 14 15 16 14 13 17 17 20 18 22 22 22 28 25 35 34 25 34 42 42 45 44 44 45 46 46 46 46 48 50 49 51 51 54 54
25 33 21 20 23 21 23 24 20 19 20 22 21 18 16 17 18 19 19 17 20 20 19 19 19 18 18 17 19 18 19 20 21 23 23 20 19 19 17 17 16 15 30 38 30 20 24 24 27 33 29 28 34 31 22 20 13 13 14 17 15 17 18 22 23 24 20 28 33 40 39 40 41 41 43 44 44 46 45 47 47 47 48 50 52 52 52 54
30 26 28 29 24 20 20 22 21 24 24 26 27 21 20 17 16 16 18 21 20 20 20 22 19 20 23 21 22 21 22 20 24 24 24 21 21 17 17 17 15 20 37 33 15 19 27 20 21 25 26 23 16 17 17 18 15 14 13 12 13 17 21 22 20 22 39 29 22 42 43 37 40 41 42 43 44 46 46 47 47 47 48 48 48 51 55 51
30 25 29 32 31 27 27 20 24 19 21 24 23 23 21 19 20 20 17 17 19 20 20 26 25 22 21 23 24 26 29 28 28 27 26 23 20 18 17 16 16 21 26 15 12 21 24 17 21 17 16 14 14 13 12 14 16 17 14 11 13 15 21 21 28 27 34 32 33 43 43 41 39 39 40 43 45 46 46 45 46 47 46 49 51 49 48 49
26 25 21 26 29 23 23 22 24 23 24 24 25 23 20 20 20 21 21 19 21 21 23 27 24 24 25 25 28 30 33 25 30 32 30 26 24 23 23 20 17 15 17 18 17 27 27 18 19 14 18 12 12 10 12 10 13 11 10 14 13 10 16 21 22 22 29 39 40 41 42 37 38 38 39 41 44 46 47 50 47 47 46 49 48 50 48 48
36 38 27 27 27 26 26 24 25 25 22 30 32 25 24 21 19 20 20 24 23 23 21 24 22 21 24 26 33 31 33 32 33 32 33 31 25 30 29 29 23 19 16 18 18 24 23 27 23 14 17 16 12 10 6 6 12 12 10 11 10 10 11 14 16 23 30 30 32 37 40 39 37 42 42 43 45 44 47 48 47 48 46 46 47 48 50 50
36 43 45 40 30 25 32 26 28 28 26 29 27 22 26 24 25 23 23 23 24 26 23 22 23 25 26 28 29 28 27 31 32 31 29 28 27 28 29 29 20 29 21 21 24 23 17 27 19 17 15 15 14 6 7 8 6 7 11 12 11 8 13 12 16 20 25 34 36 36 39 41 40 42 44 45 44 44 45 49 49 49 46 48 48 48 50 51
47 39 42 39 30 31 29 19 24 27 25 29 30 28 27 23 21 23 23 22 24 26 27 24 26 26 30 31 31 30 27 26 25 26 26 22 20 19 20 21 19 28 24 26 24 22 21 25 15 14 10 13 13 8 5 9 8 6 7 8 12 12 13 12 16 22 25 29 32 35 40 40 40 41 41 42 41 42 44 43 47 49 50 47 50 51 52 50